This demonstration page uses our WeatherBlox Daily Observations layout. Learn more.

Hourly Observations for February 21, 2015

Temp ( °F °C ) Dew Point ( °F °C ) Humidity (%) Winds ( mph kmh ) Pressure ( in mb ) Visibility ( mi km ) Precip ( " mm )
12:15 am 00:15 Cloudy 37 2.5 29 -1.8 74 74 NW 7 11 29.97 1015 10 16.0934 0 0
12:35 am 00:35 Cloudy 37 3 29 -1.8 71 71 W 7 11 29.97 1015 10 16.0934 0 0
12:55 am 00:55 Cloudy 37 2.9 28 -2.1 70 70 WNW 6 9 29.97 1015 10 16.0934 0 0
1:15 am 01:15 Cloudy 37 2.5 28 -2.5 70 70 WNW 7 11 29.97 1015 10 16.0934 0 0
1:35 am 01:35 Cloudy 36 2 28 -2 75 75 WNW 6 9 29.97 1015 10 16.0934 0 0
1:55 am 01:55 Cloudy 37 2.8 30 -1.2 75 75 WNW 9 15 29.97 1015 10 16.0934 0 0
2:15 am 02:15 Cloudy 36 2.3 30 -1.2 78 78 NW 7 11 29.97 1015 10 16.0934 0 0
2:35 am 02:35 Cloudy 35 1.8 30 -1 82 82 NW 8 13 29.97 1015 10 16.0934 0 0
2:55 am 02:55 Partly Cloudy 33 0.7 29 -1.5 85 85 NW 9 15 30 1016 10 16.0934 0 0
3:15 am 03:15 Partly Cloudy 32 -0.1 28 -2.2 86 86 NW 8 13 30 1016 10 16.0934 0 0
3:35 am 03:35 Partly Cloudy 33 0.4 29 -1.4 88 88 NW 10 17 30 1016 10 16.0934 0 0
3:55 am 03:55 Clear 33 0.5 30 -1.3 88 88 NW 9 15 30 1016 10 16.0934 0 0
4:15 am 04:15 Clear 32 0 29 -1.9 87 87 NNW 5 7 30 1016 10 16.0934 0 0
4:35 am 04:35 Clear 32 -0.1 28 -2 87 87 NNW 8 13 30 1016 10 16.0934 0 0
4:55 am 04:55 Clear 30 -0.9 27 -2.8 87 87 NW 7 11 30 1016 10 16.0934 0 0
5:15 am 05:15 Partly Cloudy 29 -1.5 27 -2.8 91 91 WNW 5 7 30.06 1018 10 16.0934 0 0
5:35 am 05:35 Partly Cloudy 29 -1.5 27 -2.7 92 92 NW 3 6 30.06 1018 10 16.0934 0 0
5:55 am 05:55 Partly Cloudy 29 -1.8 27 -3 92 92 NNW 7 11 30.06 1018 10 16.0934 0 0
6:15 am 06:15 Clear 28 -2.2 26 -3.5 91 91 NW 9 15 30.06 1018 10 16.0934 0 0
6:35 am 06:35 Clear 28 -2.4 26 -3.5 92 92 WNW 6 9 30.06 1018 10 16.0934 0 0
6:55 am 06:55 Mostly Cloudy 28 -2.3 26 -3.4 92 92 WNW 8 13 30.06 1018 10 16.0934 0 0
7:15 am 07:15 Cloudy 30 -1.1 28 -2.2 92 92 WNW 7 11 30.06 1018 10 16.0934 0 0
7:35 am 07:35 Cloudy 31 -0.3 29 -1.6 91 91 WNW 6 9 30.06 1018 10 16.0934 0 0
7:55 am 07:55 Cloudy 31 -0.5 28 -2 90 90 NW 6 9 30.06 1018 10 16.0934 0 0
8:15 am 08:15 Cloudy 32 0 29 -1.4 90 90 NW 5 7 30.06 1018 10 16.0934 0 0
8:35 am 08:35 Cloudy 34 1.1 32 0 92 92 NW 7 11 30.09 1019 10 16.0934 0 0
8:55 am 08:55 Cloudy 36 2.1 32 0.2 87 87 NW 9 15 30.09 1019 10 16.0934 0 0
9:15 am 09:15 Partly Cloudy 37 2.8 33 0.3 84 84 NW 9 15 30.06 1018 10 16.0934 0 0
9:35 am 09:35 Sunny 39 3.7 32 0.1 78 78 NNW 10 17 30.06 1018 10 16.0934 0 0
9:55 am 09:55 Sunny 40 4.7 32 0 72 72 N 12 19 30.06 1018 10 16.0934 0 0
10:15 am 10:15 Mostly Cloudy 41 4.8 30 -1 66 66 N 14 22 30.06 1018 10 16.0934 0 0
10:35 am 10:35 Cloudy 40 4.5 31 -0.8 69 69 N 13 20 30.09 1019 10 16.0934 0 0
10:55 am 10:55 Cloudy 41 4.8 29 -1.5 64 64 N 14 22 30.09 1019 10 16.0934 0 0
11:15 am 11:15 Cloudy 41 5.1 29 -1.5 63 63 N 9 15 30.09 1019 10 16.0934 0 0
11:35 am 11:35 Cloudy 42 5.7 28 -2.1 58 58 N 16 26 30.09 1019 10 16.0934 0 0
11:55 am 11:55 Cloudy 42 5.8 28 -2.2 57 57 N 16 26 30.09 1019 10 16.0934 0 0
12:15 pm 12:15 Cloudy 42 5.8 27 -2.8 54 54 N 12 19 30.12 1020 10 16.0934 0 0
12:35 pm 12:35 Cloudy 42 5.6 28 -2.5 56 56 N 16 26 30.12 1020 10 16.0934 0 0
12:55 pm 12:55 Cloudy 42 5.6 28 -2.2 58 58 N 14 22 30.12 1020 10 16.0934 0 0
1:15 pm 13:15 Cloudy 42 5.6 28 -2.2 58 58 N 21 33 30.09 1019 10 16.0934 0 0
1:35 pm 13:35 Cloudy 41 5.1 27 -2.6 58 58 N 16 26 30.09 1019 10 16.0934 0 0
1:55 pm 13:55 Cloudy 38 3.3 28 -2.1 68 68 NNE 23 37 30.15 1021 10 16.0934 0 0
2:15 pm 14:15 Cloudy 35 1.7 27 -2.6 73 73 NNE 21 33 30.15 1021 10 16.0934 0 0
2:35 pm 14:35 Cloudy 34 1 26 -3.3 73 73 NNE 23 37 30.15 1021 10 16.0934 0 0
2:55 pm 14:55 Cloudy 34 0.9 25 -3.9 71 71 NNE 20 31 30.15 1021 10 16.0934 0 0
3:15 pm 15:15 Cloudy 34 1 24 -4.5 67 67 NNE 20 31 30.18 1022 10 16.0934 0 0
3:35 pm 15:35 Cloudy 32 0.2 22 -5.5 66 66 N 18 30 30.21 1023 10 16.0934 0 0
3:55 pm 15:55 Cloudy 32 0.1 20 -6.7 61 61 NNE 17 28 30.24 1024 10 16.0934 0 0
4:15 pm 16:15 Cloudy 32 0.1 18 -7.9 55 55 NNE 18 30 30.24 1024 10 16.0934 0 0
4:35 pm 16:35 Cloudy 32 0.1 18 -8 55 55 NNE 18 30 30.24 1024 10 16.0934 0 0
4:55 pm 16:55 Cloudy 32 0 16 -8.9 52 52 NNE 21 33 30.24 1024 10 16.0934 0 0
5:15 pm 17:15 Cloudy 32 -0.2 17 -8.3 55 55 NNE 18 30 30.24 1024 10 16.0934 0 0
5:35 pm 17:35 Cloudy 31 -0.5 17 -8.3 56 56 NNE 18 30 30.24 1024 10 16.0934 0 0
5:55 pm 17:55 Cloudy 30 -0.9 17 -8.5 57 57 NNE 21 33 30.24 1024 10 16.0934 0 0
6:15 pm 18:15 Cloudy 30 -1.1 17 -8.6 57 57 NNE 17 28 30.24 1024 10 16.0934 0 0
6:35 pm 18:35 Cloudy 29 -1.5 17 -8.5 59 59 NNE 20 31 30.27 1025 10 16.0934 0 0
6:55 pm 18:55 Cloudy 29 -1.9 16 -8.7 60 60 NNE 21 33 30.27 1025 10 16.0934 0 0
7:15 pm 19:15 Cloudy 28 -2.2 17 -8.5 62 62 NNE 17 28 30.33 1027 10 16.0934 0 0
7:35 pm 19:35 Cloudy 28 -2.3 16 -8.7 62 62 NNE 16 26 30.33 1027 10 16.0934 0 0
7:55 pm 19:55 Cloudy 28 -2.5 16 -8.8 62 62 NNE 16 26 30.33 1027 10 16.0934 0 0
8:15 pm 20:15 Cloudy 27 -2.9 16 -9.1 63 63 NNE 18 30 30.36 1028 10 16.0934 0 0
8:35 pm 20:35 Cloudy 26 -3.1 15 -9.2 63 63 NNE 18 30 30.36 1028 10 16.0934 0 0
8:55 pm 20:55 Cloudy 26 -3.5 15 -9.5 64 64 NNE 20 31 30.39 1029 10 16.0934 0 0
9:15 pm 21:15 Cloudy 25 -3.9 14 -10.1 62 62 NE 17 28 30.39 1029 10 16.0934 0 0
9:35 pm 21:35 Cloudy 24 -4.3 13 -10.5 62 62 NE 16 26 30.39 1029 10 16.0934 0 0
9:55 pm 21:55 Cloudy 24 -4.5 13 -10.7 62 62 NE 15 24 30.45 1031 10 16.0934 0 0
10:15 pm 22:15 Cloudy 23 -4.8 13 -10.5 65 65 NNE 17 28 30.45 1031 10 16.0934 0 0
10:35 pm 22:35 Cloudy 23 -5 13 -10.5 66 66 NE 16 26 30.48 1032 10 16.0934 0 0
10:55 pm 22:55 Cloudy 23 -5.2 12 -11.3 63 63 NNE 18 30 30.48 1032 10 16.0934 0 0
11:15 pm 23:15 Cloudy 22 -5.5 11 -11.5 63 63 NNE 18 30 30.48 1032 10 16.0934 0 0
11:35 pm 23:35 Cloudy with Light Snow 21 -6.1 12 -10.9 69 69 NNE 18 30 30.5 1033 4 6.43736 0 0
11:55 pm 23:55 Cloudy with Light Snow 20 -6.8 15 -9.7 80 80 NNE 16 26 30.53 1034 2 3.21868 0 0

Powered by AerisWeather